軌道要素
Epoch 2016 June 21.0 TT = JDT 2457560.5
T 2016 June 22.14365 TT MPCW
q 2.2121188 (2000.0) P Q
n 0.17507111 Peri. 133.75406 +0.01921724 -0.97570463
a 3.1646552 Node 313.74707 +0.80839372 +0.14361082
e 0.3009922 Incl. 17.58451 +0.58832839 -0.16545816
P 5.63
From 34 observations 2009 Sept. 18-2017 Mar. 24, mean residual 0".3.
|